TIME,DELAY(SENSOR),PRES,OXYGEN,RAWTEMP,T(OPTODE),TCPHASE,FLUOR,BETA(BETA700),BETA(BETA412),BETA(BETA440),CDOM,C(CSC),ED(ED411.90),ED(ED443.80),ED(ED489.40),ED(ED554.70),LU(LU412.20),LU(LU443.80),LU(LU489.40),LU(LU555.00),COMP,TILTX,TILTY,CHECK
1376516720,5805,830.6900024414062000,158.7812042236328000,499.7343139648437500,7.5377368927001950,40.7275886535644500,77,1492,54,53,60,10362,2146963894,2147517412,2147298368,2147510116,2147086153,2146923712,2147717339,2147124992,955,-1,8,20207
1376520316,5807,909.2500000000000000,198.0791931152343800,545.0748291015625000,6.1239399909973145,38.8196983337402340,77,1503,53,53,60,10362,2146967817,2147521161,2147302893,2147521307,2147087222,2146924553,2147722633,2147122514,2686,-1,8,4064
1376523916,5807,927.8800048828125000,194.9100952148437500,553.7750854492188000,5.8508892059326170,39.1770210266113300,76,1511,52,53,60,10366,2146966473,2147520027,2147302875,2147523840,2147089682,2146917897,2147729179,2147119067,3131,-1,8,5188
1376527516,5805,960.2500000000000000,211.2048034667968800,561.6016235351562000,5.6047501564025880,38.3303108215332000,77,1511,54,55,61,10344,2146964242,2147518756,2147301760,2147520923,2147090505,2146918747,2147725266,2147122578,3097,-1,8,18772
1376531116,5803,961.1300048828125000,197.9385070800781200,561.4669189453125000,5.6089878082275390,39.1285400390625000,77,1510,53,53,60,10332,2146964507,2147523693,2147304109,2147521865,2147088960,2146914002,2147726016,2147120329,3126,-1,8,31679
1376534716,5802,962.0700073242188000,207.7109069824218800,564.0717773437500000,5.5269570350646970,38.5822296142578100,77,1511,54,54,60,10321,2146968813,2147521234,2147304996,2147518994,2147086619,2146916672,2147729947,2147122944,2905,0,8,36856
1376538316,5807,997.4899902343750000,225.9971008300781200,572.9392700195312000,5.2472858428955080,37.7052993774414060,77,1514,54,52,61,10324,2146964370,2147521014,2147306587,2147524854,2147085997,2146910637,2147732196,2147120402,96,0,8,43356
1376541916,5805,1003.5599975585938000,232.4046936035156200,574.5828857421875000,5.1953740119934080,37.3903694152832000,78,1514,54,54,60,10322,2146965010,2147519680,2147306249,2147523474,2147086838,2146918930,2147735872,2147120045,3212,-1,8,2674
1376545516,5804,1003.9400024414062000,232.5180969238281200,573.3734741210938000,5.2335739135742190,37.3614997863769500,78,1516,54,53,60,10326,2146962368,2147521590,2147307574,2147523986,2147084032,2146909092,2147730934,2147124397,3513,0,8,19263
1376549116,5804,1001.6699829101562000,219.8816070556640600,574.4105834960938000,5.2008171081542970,38.0718994140625000,77,1520,54,52,60,10319,2146967634,2147519222,2147307830,2147522230,2147088502,2146912192,2147735332,2147118244,3240,0,8,65534
1376552716,5807,1004.7600097656250000,228.3305053710937500,575.5656127929688000,5.1643300056457520,37.6267204284668000,78,1524,53,54,59,10320,2146963273,2147522578,2147306340,2147522907,2147087881,2146918244,2147729316,2147119332,3245,-1,8,28260
1376556316,5806,1012.1300048828125000,255.3954010009765600,575.0222778320312000,5.1814942359924320,36.2370491027832000,78,1530,54,54,60,10320,2146965092,2147520365,2147304411,2147527058,2147088566,2146914459,2147732562,2147122011,3483,0,8,1365
1376559916,5807,1004.6799926757812000,231.1537017822265600,576.1168212890625000,5.1469120979309080,37.4857788085937500,76,1547,54,54,61,10316,2146963200,2147520868,2147304091,2147526774,2147089618,2146916562,2147731209,2147120694,164,0,8,16164
1376563516,5806,996.5900268554688000,234.7704925537109400,578.8342895507812000,5.0609970092773440,37.3451309204101560,78,1547,55,54,60,10320,2146964736,2147522166,2147302500,2147525010,2147085156,2146915904,2147732160,2147120768,2958,-1,8,23944
1376567116,5806,1000.4000244140625000,235.3370971679687500,581.2515869140625000,4.9845199584960940,37.3611106872558600,79,1547,54,54,59,10320,2146962880,2147520246,2147304301,2147524498,2147085604,2146913526,2147736155,2147120329,42,0,8,10251
1376570716,5805,1004.6099853515625000,258.7576904296875000,581.2442016601562000,4.9847531318664550,36.1922798156738300,78,1552,53,55,60,10317,2146962048,2147521984,2147303369,2147522742,2147086253,2146912676,2147730779,2147120694,3363,-1,8,25149
1376574316,5804,997.5300292968750000,244.4165039062500000,580.8718872070312000,4.9965338706970215,36.8863410949707000,79,1556,55,53,59,10318,2146968091,2147518884,2147301714,2147525494,2147088265,2146915702,2147731757,2147120630,3548,-1,8,6754
1376577916,5809,1000.5399780273438000,262.8402099609375000,582.2380981445312000,4.9532952308654785,36.0184288024902340,78,1563,54,53,60,10319,2146964288,2147520548,2147308434,2147525467,2147085558,2146914825,2147734939,2147120740,289,0,8,40710
1376581516,5803,996.9899902343750000,228.1833038330078000,581.5903930664062000,4.9737968444824220,37.7483901977539060,77,1564,54,54,59,10318,2146963949,2147517924,2147305938,2147524187,2147085824,2146917056,2147734171,2147119113,3526,-1,8,18929
1376585116,5809,1004.2700195312500000,271.6247863769531000,580.9962768554688000,4.9925990104675290,35.5933189392089840,79,1566,53,53,60,10317,2146964598,2147518802,2147302848,2147521993,2147088347,2146914075,2147734994,2147120448,17,0,8,22246
1376588716,5804,998.9799804687500000,242.1540985107422000,581.7064819335938000,4.9701228141784670,37.0166587829589840,78,1572,54,53,60,10315,2146964891,2147521133,2147303131,2147524973,2147087835,2146911414,2147731693,2147122660,3153,0,8,23541
1376592316,5805,998.6799926757812000,264.5938110351562500,582.1909179687500000,4.9547882080078125,35.9366493225097660,78,1574,54,54,60,10312,2146966125,2147519899,2147308032,2147526070,2147090724,2146908004,2147732013,2147122395,3293,-1,8,47714
1376595916,5804,1001.9799804687500000,256.7887878417969000,581.8718261718750000,4.9648909568786620,36.2977409362793000,79,1580,55,53,60,10315,2146965723,2147519277,2147306678,2147523117,2147088429,2146911899,2147736557,2147122011,3476,0,8,54785
1376599516,5804,1005.8599853515625000,251.9609069824218800,582.1917114257812000,4.9547629356384280,36.5373687744140600,79,1576,54,53,60,10313,2146965056,2147517449,2147307282,2147525888,2147088621,2146912128,2147733211,2147123565,3407,0,8,58108
1376603116,5810,1003.1099853515625000,247.8253936767578000,581.7122802734375000,4.9699378013610840,36.7315101623535160,79,1577,53,54,59,10314,2146963913,2147516617,2147308150,2147522916,2147085056,2146910070,2147733092,2147119488,3572,0,8,28691
1376606716,5806,998.8200073242188000,250.3444061279297000,580.8842773437500000,4.9961447715759280,36.5915794372558600,79,1576,53,53,60,10316,2146961910,2147517686,2147303360,2147521216,2147087003,2146908150,2147728585,2147120009,3429,-1,8,20377
1376610316,5807,992.4799804687500000,257.1773071289062500,582.1149291992188000,4.9571948051452640,36.2837486267089840,79,1582,55,53,60,10313,2146964635,2147518244,2147308708,2147523117,2147086793,2146916077,2147735332,2147121051,12,0,8,63253
1376613916,5807,1000.3699951171875000,265.3387145996094000,587.2214965820312000,4.7954311370849610,35.9962882995605500,79,1582,55,54,60,10312,2146959177,2147518290,2147306925,2147526948,2147085632,2146915273,2147731081,2147119698,3152,-1,8,16122
1376617516,5810,997.5900268554688000,265.0327148437500000,587.7332153320312000,4.7792091369628910,36.0199394226074200,79,1584,54,53,60,10309,2146961764,2147516461,2147308827,2147525933,2147085851,2146917129,2147731346,2147123200,88,0,8,7048
1376621116,5806,996.4000244140625000,273.5013122558594000,587.1981811523438000,4.7961711883544920,35.6245498657226560,79,1589,55,54,59,10310,2146963300,2147518409,2147306770,2147528923,2147086720,2146915035,2147734518,2147122889,3478,0,8,64045
1376624716,5806,1003.6799926757812000,259.3416137695312500,590.9942016601562000,4.6757760047912600,36.3479804992675800,80,1592,55,54,59,10306,2146962834,2147522212,2147307666,2147524297,2147087826,2146915172,2147736082,2147120182,3204,-1,8,17003
1376628316,5805,1005.4000244140625000,271.6958007812500000,592.2202148437500000,4.6368618011474610,35.7995300292968750,79,1593,54,53,61,10305,2146964699,2147520512,2147306304,2147527241,2147088548,2146913170,2147731858,2147119972,3255,0,8,5191
1376631916,5805,1011.1199951171875000,277.8735961914062500,590.3474121093750000,4.6963009834289550,35.4896507263183600,82,1601,54,54,60,10298,2146965577,2147518720,2147310299,2147527296,2147089737,2146907510,2147734656,2147125110,438,0,8,9258
1376635516,5807,1002.9699707031250000,264.3417053222656000,590.8245239257812000,4.6811599731445310,36.1099891662597660,79,1601,54,54,58,10298,2146963894,2147521206,2147308288,2147529408,2147086253,2146909961,2147730477,2147122825,3359,0,8,44797
1376639116,5805,1007.2600097656250000,280.0833129882812500,590.2330932617188000,4.6999239921569820,35.3907699584960940,80,1601,53,54,60,10298,2146964690,2147519561,2147308416,2147526107,2147087232,2146916507,2147733248,2147120201,3474,0,8,25477
1376642716,5807,1010.2500000000000000,280.0580139160156000,590.3472290039062000,4.6963038444519040,35.3945388793945300,80,1605,54,52,60,10296,2146966198,2147522477,2147309906,2147526509,2147086427,2146917458,2147737188,2147117677,3121,0,8,50250
1376646316,5805,1013.7800292968750000,283.8765869140625000,587.7271118164062000,4.7794017791748050,35.1804389953613300,80,1607,54,53,61,10299,2146963958,2147516644,2147305627,2147525988,2147090404,2146911515,2147736018,2147120000,3314,0,8,31414
1376649916,5805,1005.5000000000000000,260.7244873046875000,587.9183959960938000,4.7733378410339355,36.2246704101562500,80,1613,54,54,59,10299,2146963437,2147520246,2147306843,2147525238,2147087835,2146913846,2147735972,2147123218,3242,-1,8,21955
1376653516,5807,1004.8200073242188000,274.6448059082031000,591.4816284179688000,4.6603050231933590,35.6537818908691400,79,1620,53,53,61,10290,2146963584,2147521106,2147308233,2147526601,2147081014,2146917842,2147732873,2147120804,366,0,8,16873
1376657116,5806,1003.1300048828125000,276.7687072753906000,590.9373779296875000,4.6775760650634770,35.5493507385253900,79,1623,54,53,60,10283,2146965403,2147522020,2147308324,2147523492,2147087515,2146905837,2147733430,2147118500,415,0,8,5107
1376659855,5809,1005.9500122070312000,260.3157958984375000,591.8665771484375000,4.6480879783630370,36.3182792663574200,79,1618,53,52,59,10294,2146966272,2147518793,2147310253,2147524708,2147082724,2146913270,2147735506,2147120320,144,0,7,7225
